Hourly Data Report for May 05, 2012

All times are specified in Local Standard Time (LST). Add 1 hour to adjust for Daylight Saving Time where and when it is observed.

GANDER INTL A
NEWFOUNDLAND

48°56'13.000" N
54°34'05.000" W
151.20 m
8401703
71803
YQX

Download Data

Hourly Data (May 2012)
Hourly Data Report for May 5, 2012
Temp Definition
°C
Dew Point Temp Definition
°C
Rel Hum Definition
%
Wind Dir Definition
10's deg

Wind Spd Definition
km/h
Visibility Definition
km
Stn Press Definition
kPa
Hmdx Definition


Wind Chill Definition


Weather Definition


TIME
00:30 Legend Double Dagger 2.2 1.9 98 35 14 0.2 100.00     Drizzle,Fog
01:30 Legend Double Dagger 2.0 1.7 98 35 11 0.2 99.99     Drizzle,Fog
02:30 Legend Double Dagger 2.1 1.8 98 35 9 0.2 99.98     Rain,Fog
03:30 Legend Double Dagger 2.3 2.0 98 36 11 0.2 99.98     Drizzle,Fog
04:30 Legend Double Dagger 2.5 2.2 98 35 10 0.2 99.97     Drizzle,Fog
05:30 Legend Double Dagger 2.7 2.4 98 36 14 0.2 99.95     Drizzle,Fog
06:30 Legend Double Dagger 3.3 3.0 98 1 12 0.2 99.95     Drizzle,Fog
07:30 Legend Double Dagger 3.8 3.5 98 0 11 0.2 99.98     Drizzle,Fog
08:30 Legend Double Dagger 5.0 4.7 98 3 12 0.2 99.99     Drizzle,Fog
09:30 Legend Double Dagger 6.7 6.6 99 6 13 1.2 99.99     Drizzle,Fog
10:30 Legend Double Dagger 7.9 7.8 99 8 15 9.7 100.02     Drizzle,Fog
11:30 Legend Double Dagger 8.8 8.2 96 8 15 10.0 100.04     Cloudy
12:30 Legend Double Dagger 10.9 8.7 86 9 23 10.0 100.02     LegendNANA
13:30 Legend Double Dagger 13.4 8.5 72 9 27 10.0 100.00     LegendNANA
14:30 Legend Double Dagger 14.2 8.2 67 10 26 10.0 99.96     Mainly Clear
15:30 Legend Double Dagger 13.0 6.9 66 9 24 10.0 99.97     LegendNANA
16:30 Legend Double Dagger 10.6 7.1 79 11 19 10.0 100.00     LegendNANA
17:30 Legend Double Dagger 7.9 5.9 87 9 24 10.0 100.01     Mostly Cloudy
18:30 Legend Double Dagger 7.4 5.7 89 10 19 10.0 100.04     LegendNANA
19:30 Legend Double Dagger 6.0 4.8 92 7 18 10.0 100.06     LegendNANA
20:30 Legend Double Dagger 5.8 4.6 92 8 23 8.1 100.06     Fog
21:30 Legend Double Dagger 5.8 4.6 92 7 18 10.0 100.05     LegendNANA
22:30 Legend Double Dagger 5.7 4.7 93 7 9 10.0 100.06     LegendNANA
23:30 Legend Double Dagger 5.5 4.5 93 8 13 10.0 100.04     Cloudy

Notes on Data Quality.

Legend

  • E = Estimated
  • M = Missing
  • NA = Not Available
  • ‡ = Partner data that is not subject to review by the National Climate Archives
Date modified: